Redmond, OR

8:13 PM PDT on April 22, 2018 (GMT -0700)
Roberts Field Airport

Weather History for KRDM - March, 2013

Change the Weather History Date:

Friday, March 8, 2013

  Actual Average Record
Temperature  
Mean Temperature 35 °F 39 °F  
Max Temperature 50 °F 52 °F 74 °F (2004)
Min Temperature 20 °F 25 °F 10 °F (1974)
Degree Days  
Heating Degree Days 30 26  
Month to date heating degree days 223 217  
Since 1 July heating degree days 4690 4890  
Cooling Degree Days 0 0  
Month to date cooling degree days 0 0  
Year to date cooling degree days 0 0  
Moisture  
Dew Point 26 °F    
Average Humidity 67    
Maximum Humidity 92    
Minimum Humidity 42    
Precipitation  
Precipitation 0.02 in 0.01 in 0.48 in (1978)
Month to date precipitation 0.06 0.15  
Year to date precipitation 0.48 1.77  
Sea Level Pressure  
Sea Level Pressure 30.04 in    
Wind  
Wind Speed 4 mph (WSW)    
Max Wind Speed 17 mph    
Max Gust Speed 22 mph    
Visibility 8 miles    
Events Fog , Rain , Snow    
T = Trace of Precipitation, MM = Missing Value Source: NWS Daily Summary

Daily Weather History Graph

Daily Weather History Graph

Search for Another Location

Airport or City:

Astronomy

Mar. 08, 2013 Rise Set
Actual Time 6:28 AM PST 6:02 PM PST
Civil Twilight 6:00 AM PST 6:31 PM PST
Nautical Twilight 5:26 AM PST 7:04 PM PST
Astronomical Twilight 4:52 AM PST 7:38 PM PST
Moon 4:22 AM PST (3/8) 2:58 PM PST (3/8)
Length of Visible Light 12h 31m
Length of Day
11h 33m
Waning Crescent, 11% of the Moon is Illuminated
Mar 8
Waning Crescent
Mar 11
New
Mar 19
First Quarter
Mar 27
Full
Apr 2
Last Quarter

Hourly Weather History & Observations

Time (PST) Temp. Windchill Dew Point Humidity Pressure Visibility Wind Dir Wind Speed Gust Speed Precip Events Conditions
12:56 AM 25.0 °F - 23.0 °F 92% 30.01 in 10.0 mi Calm Calm - N/A   Scattered Clouds
1:56 AM 21.0 °F - 18.0 °F 88% 30.03 in 10.0 mi Calm Calm - N/A   Clear
2:56 AM 25.0 °F 20.7 °F 23.0 °F 92% 30.00 in 10.0 mi SSE 3.5 mph - N/A   Overcast
3:56 AM 26.1 °F - 24.1 °F 92% 29.99 in 10.0 mi Calm Calm - N/A   Overcast
4:56 AM 26.1 °F - 24.1 °F 92% 30.01 in 10.0 mi Calm Calm - N/A   Overcast
5:56 AM 24.1 °F - 21.9 °F 91% 30.02 in 10.0 mi Calm Calm - N/A   Overcast
6:56 AM 27.0 °F - 24.1 °F 89% 30.04 in 3.0 mi Calm Calm - 0.00 in Snow Light Snow
6:58 AM 26.6 °F - 24.8 °F 93% 29.97 in 2.5 mi Calm Calm - 0.00 in Snow Light Snow
7:05 AM 26.6 °F - 24.8 °F 93% 29.97 in 0.8 mi Calm Calm - 0.00 in Snow Light Snow
7:25 AM 26.6 °F - 26.6 °F 100% 29.97 in 0.5 mi Calm Calm - 0.00 in Fog , Snow Snow
7:39 AM 26.6 °F 22.6 °F 26.6 °F 100% 29.98 in 2.0 mi SE 3.5 mph - 0.00 in Snow Light Snow
7:44 AM 26.6 °F 22.6 °F 24.8 °F 93% 29.98 in 3.0 mi SSE 3.5 mph - 0.00 in Snow Light Snow
7:56 AM 28.0 °F - 26.1 °F 92% 30.04 in 9.0 mi Calm Calm - 0.00 in   Overcast
8:39 AM 30.2 °F - 28.4 °F 93% 29.99 in 1.8 mi Calm Calm - 0.00 in Snow Light Snow
8:50 AM 30.2 °F - 28.4 °F 93% 30.00 in 2.0 mi Calm Calm - 0.00 in Snow Light Snow
8:56 AM 30.9 °F 27.5 °F 28.9 °F 92% 30.05 in 4.0 mi SSW 3.5 mph - 0.00 in Snow Light Snow
9:07 AM 30.2 °F 26.7 °F 28.4 °F 93% 30.00 in 9.0 mi SSW 3.5 mph - 0.00 in   Overcast
9:48 AM 33.8 °F 29.6 °F 30.2 °F 87% 30.00 in 10.0 mi WSW 4.6 mph - 0.00 in   Overcast
9:56 AM 33.1 °F 27.7 °F 30.0 °F 89% 30.05 in 10.0 mi West 5.8 mph - 0.00 in   Mostly Cloudy
10:56 AM 39.0 °F 33.4 °F 30.9 °F 73% 30.04 in 10.0 mi WNW 8.1 mph - N/A   Mostly Cloudy
11:56 AM 41.0 °F 35.8 °F 30.9 °F 67% 30.05 in 10.0 mi West 8.1 mph - N/A   Mostly Cloudy
12:56 PM 44.1 °F 40.8 °F 28.9 °F 55% 30.03 in 10.0 mi Variable 5.8 mph - N/A   Mostly Cloudy
1:03 PM 44.6 °F 40.7 °F 28.4 °F 53% 29.98 in 10.0 mi Variable 6.9 mph - N/A   Mostly Cloudy
1:56 PM 46.9 °F - 26.1 °F 44% 30.02 in 10.0 mi NW 10.4 mph - N/A   Mostly Cloudy
2:56 PM 48.0 °F - 27.0 °F 44% 30.01 in 10.0 mi NW 12.7 mph - N/A   Mostly Cloudy
3:56 PM 48.0 °F - 26.1 °F 42% 30.01 in 10.0 mi NNE 12.7 mph 18.4 mph N/A   Mostly Cloudy
4:11 PM 41.0 °F 37.1 °F 28.4 °F 61% 29.98 in 2.5 mi Variable 5.8 mph - 0.02 in Rain Light Rain
4:18 PM 41.0 °F 37.1 °F 28.4 °F 61% 29.99 in 6.0 mi SE 5.8 mph - 0.02 in Rain Light Rain
4:56 PM 44.1 °F 42.5 °F 27.0 °F 51% 30.04 in 10.0 mi WNW 3.5 mph - 0.02 in   Mostly Cloudy
5:56 PM 42.1 °F 37.7 °F 26.1 °F 53% 30.07 in 10.0 mi North 6.9 mph - N/A   Overcast
6:56 PM 35.1 °F - 25.0 °F 67% 30.11 in 10.0 mi Calm Calm - N/A   Clear
7:56 PM 30.9 °F - 23.0 °F 72% 30.14 in 10.0 mi Calm Calm - N/A   Clear
8:56 PM 26.1 °F - 21.9 °F 84% 30.17 in 10.0 mi Calm Calm - N/A   Clear
9:56 PM 26.1 °F 20.5 °F 19.9 °F 78% 30.19 in 10.0 mi SW 4.6 mph - N/A   Clear
10:56 PM 23.0 °F - 19.0 °F 85% 30.19 in 10.0 mi Calm Calm - N/A   Clear
11:56 PM 19.9 °F - 17.1 °F 89% 30.21 in 10.0 mi Calm Calm - N/A   Clear